Location: Newark
(40.3500°N, 15.2333°E)
Time: 01:53:51
(UTC+00:00)

Vanguard 1 - Pass Details

Date: 25 January 2020
Orbit: 650 x 3833 km, 34.2° (Epoch: 20 February)

Event Time Altitude Azimuth Distance (km) Brightness Sun altitude
Rises 17:33:24 0° 258° (WSW) 2,954 14.4 -16.2°
Reaches altitude 10° 17:35:34 10° 251° (WSW) 2,084 13.1 -16.6°
Maximum altitude 17:39:54 45° 179° (S) 1,052 10.2 -17.5°
Enters shadow 17:43:21 22° 117° (ESE) 1,917 11.1 -18.1°
Drops below altitude 10° 17:45:54 10° 108° (ESE) 2,880 - -18.6°
Sets 17:49:26 0° 103° (ESE) 4,254 - -19.2°
